Time[GMT],current_speed[cm/s](2m),current_direction[angular_degrees](2m),temperature[C](2m),current_u[cm/s](2m),current_v[cm/s](2m),signal_strength[db](2m),tilt[degrees](2m)
2018-09-28 06:00,6.04,208.1,17.24,-2.85,-5.33,-24.50,6.89
2018-09-28 07:00,2.96,243.8,17.23,-2.66,-1.31,-23.16,5.34
2018-09-28 08:00,2.94,215.9,17.22,-1.72,-2.39,-26.48,5.67
2018-09-28 09:00,2.89,138.9,17.21,1.90,-2.18,-18.90,5.80
2018-09-28 10:00,4.03,147.5,17.20,2.16,-3.39,-18.84,6.59
2018-09-28 11:00,13.45,263.6,17.19,-13.36,-1.51,-22.97,6.41
2018-09-28 12:00,4.33,314.7,17.18,-3.07,3.05,-21.57,6.85
2018-09-28 13:00,15.25,268.4,17.17,-15.24,-0.43,-25.41,8.04
2018-09-28 14:00,13.26,265.4,17.16,-13.22,-1.06,-28.02,7.26
2018-09-28 15:00,14.51,251.1,17.12,-13.73,-4.69,-19.12,8.36
2018-09-28 16:00,14.59,235.8,17.09,-12.06,-8.21,-19.55,8.12
2018-09-28 17:00,11.88,226.6,17.04,-8.63,-8.16,-18.14,7.75
2018-09-28 18:00,9.53,220.0,17.01,-6.13,-7.29,-26.89,5.67
2018-09-28 19:00,11.40,169.6,17.00,2.06,-11.21,-27.88,5.59
2018-09-28 20:00,5.35,199.7,16.98,-1.81,-5.03,-27.65,4.78
2018-09-28 21:00,2.66,132.8,17.00,1.95,-1.81,-27.22,4.57
2018-09-28 22:00,4.46,107.4,17.02,4.25,-1.33,-26.93,4.86
2018-09-28 23:00,3.60,65.7,17.03,3.28,1.48,-26.55,4.53
2018-09-29 00:00,3.97,298.5,17.02,-3.49,1.89,-26.77,3.52
2018-09-29 01:00,8.28,262.7,17.01,-8.21,-1.04,-27.24,3.61
2018-09-29 02:00,1.18,323.1,16.99,-0.71,0.94,-26.73,3.36
2018-09-29 03:00,7.26,228.2,16.99,-5.41,-4.84,-27.24,3.20
2018-09-29 04:00,3.14,245.2,16.95,-2.85,-1.32,-25.95,3.88
2018-09-29 05:00,10.97,185.0,16.94,-0.96,-10.92,-28.96,3.17
2018-09-29 06:00,7.83,185.7,16.93,-0.77,-7.79,-28.62,2.95
2018-09-29 07:00,13.04,124.6,16.94,10.74,-7.40,-28.95,3.48
2018-09-29 08:00,13.31,136.0,16.95,9.25,-9.57,-27.35,4.70
2018-09-29 09:00,12.05,138.3,16.93,8.01,-9.00,-26.82,5.03
2018-09-29 10:00,13.16,118.7,16.91,11.54,-6.32,-28.16,4.85
2018-09-29 11:00,11.46,121.3,16.91,9.80,-5.95,-28.55,4.71
2018-09-29 12:00,0.80,199.7,16.89,-0.27,-0.75,-26.80,4.79
2018-09-29 13:00,6.99,225.6,16.88,-4.99,-4.89,-26.67,4.13
2018-09-29 14:00,6.23,217.1,16.92,-3.76,-4.97,-29.42,4.24
2018-09-29 15:00,4.79,219.2,16.98,-3.03,-3.71,-30.53,3.09
2018-09-29 16:00,7.50,172.5,17.03,0.98,-7.44,-31.61,2.75
2018-09-29 17:00,11.35,175.6,17.14,0.86,-11.32,-32.46,2.13
2018-09-29 18:00,17.63,191.7,17.25,-3.58,-17.26,-34.34,2.33
2018-09-29 19:00,15.38,174.4,17.25,1.51,-15.31,-33.46,3.39
2018-09-29 20:00,21.17,184.7,17.42,-1.72,-21.10,-33.29,3.60
2018-09-29 21:00,15.05,215.8,17.40,-8.81,-12.21,-31.77,3.73
2018-09-29 22:00,6.92,224.9,17.25,-4.88,-4.90,-26.24,3.09
2018-09-29 23:00,1.25,118.4,17.20,1.10,-0.59,-23.93,2.32
2018-09-30 00:00,2.93,0.4,17.15,0.02,2.93,-25.50,2.03
2018-09-30 01:00,5.79,294.7,17.14,-5.26,2.42,-27.11,1.58
2018-09-30 02:00,5.61,299.1,17.10,-4.90,2.73,-27.23,1.59
2018-09-30 03:00,4.11,357.0,17.07,-0.22,4.11,-27.08,1.88
2018-09-30 04:00,2.44,214.7,17.05,-1.39,-2.01,-26.92,1.53
2018-09-30 05:00,5.76,168.7,17.03,1.13,-5.65,-26.98,2.91
2018-09-30 06:00,12.24,178.2,17.01,0.39,-12.23,-28.38,3.03
2018-09-30 07:00,15.71,163.7,16.97,4.42,-15.08,-27.88,5.47
2018-09-30 08:00,16.42,179.1,16.93,0.27,-16.42,-26.74,5.72
2018-09-30 09:00,14.08,180.2,16.86,-0.05,-14.08,-28.62,3.66
2018-09-30 10:00,15.19,182.1,16.83,-0.56,-15.18,-28.48,2.98
2018-09-30 11:00,11.46,212.2,16.81,-6.10,-9.70,-27.64,4.74
2018-09-30 12:00,6.94,235.3,16.80,-5.71,-3.95,-24.57,4.82
2018-09-30 13:00,11.04,232.7,16.78,-8.78,-6.69,-25.49,8.17
2018-09-30 14:00,15.48,266.0,16.82,-15.44,-1.09,-26.69,3.05
2018-09-30 15:00,13.79,254.1,16.86,-13.26,-3.78,-30.73,2.77
2018-09-30 16:00,8.34,266.7,16.93,-8.32,-0.49,-31.02,2.99
2018-09-30 17:00,11.02,247.0,17.02,-10.14,-4.31,-34.44,1.65
2018-09-30 18:00,17.23,230.7,17.15,-13.34,-10.91,-35.88,1.53
2018-09-30 19:00,9.33,229.7,17.35,-7.12,-6.04,-34.81,1.91
2018-09-30 20:00,7.91,201.6,17.29,-2.92,-7.35,-32.26,1.67
2018-09-30 21:00,10.14,166.1,17.42,2.44,-9.85,-33.76,1.62
2018-09-30 22:00,4.93,173.4,17.38,0.57,-4.90,-25.86,2.68
2018-09-30 23:00,3.36,68.9,17.20,3.14,1.21,-25.26,3.15
2018-10-01 00:00,7.01,5.1,17.07,0.63,6.99,-25.85,4.24
2018-10-01 01:00,5.29,347.8,17.04,-1.12,5.17,-25.54,4.30
2018-10-01 02:00,4.13,40.0,17.03,2.65,3.16,-26.39,3.21
2018-10-01 03:00,3.28,247.0,17.02,-3.02,-1.28,-25.75,2.22
2018-10-01 04:00,2.94,320.4,17.00,-1.87,2.26,-26.74,2.99
2018-10-01 05:00,4.35,221.8,17.00,-2.90,-3.25,-27.27,2.14
2018-10-01 06:00,10.05,186.2,16.95,-1.09,-9.99,-27.57,2.60
2018-10-01 07:00,18.29,195.4,17.02,-4.86,-17.63,-29.45,3.00
2018-10-01 08:00,18.61,201.4,17.03,-6.80,-17.33,-29.21,3.44
2018-10-01 09:00,18.03,212.8,17.02,-9.75,-15.16,-28.15,3.55
2018-10-01 10:00,20.69,197.4,16.89,-6.17,-19.75,-28.33,2.99
2018-10-01 11:00,13.42,216.9,16.86,-8.06,-10.73,-28.29,2.66
2018-10-01 12:00,11.72,225.4,16.83,-8.35,-8.23,-28.16,3.23
2018-10-01 13:00,11.98,270.0,16.82,-11.98,-0.01,-31.01,3.37
2018-10-01 14:00,12.58,267.5,16.84,-12.56,-0.54,-31.79,3.21
2018-10-01 15:00,18.12,259.8,16.91,-17.83,-3.22,-31.48,4.56
2018-10-01 16:00,16.85,274.0,17.00,-16.81,1.18,-26.97,6.78
2018-10-01 17:00,17.15,264.5,17.03,-17.07,-1.64,-24.10,7.34
2018-10-01 18:00,22.02,244.4,16.98,-19.87,-9.50,-24.54,7.38
2018-10-01 19:00,22.94,227.2,16.94,-16.82,-15.60,-25.99,8.95
2018-10-01 20:00,34.61,218.2,16.83,-21.40,-27.20,-23.30,9.70
2018-10-01 21:00,34.19,227.3,16.80,-25.12,-23.19,-25.91,9.22
2018-10-01 22:00,28.98,226.0,16.81,-20.86,-20.12,-21.89,7.97
2018-10-01 23:00,27.21,245.4,16.80,-24.74,-11.32,-22.43,9.68
2018-10-02 00:00,21.13,258.8,16.77,-20.72,-4.11,-20.11,8.91
2018-10-02 01:00,27.10,270.2,16.78,-27.10,0.09,-21.57,8.71
2018-10-02 02:00,20.65,276.6,16.79,-20.51,2.38,-24.38,7.71
2018-10-02 03:00,17.43,269.2,16.79,-17.43,-0.23,-24.28,7.35
2018-10-02 04:00,21.50,272.1,16.77,-21.49,0.78,-25.41,6.36
2018-10-02 05:00,17.21,273.6,16.77,-17.17,1.07,-25.18,7.32
2018-10-02 06:00,19.47,255.4,16.75,-18.85,-4.91,-23.95,6.72
2018-10-02 07:00,13.88,258.8,16.73,-13.62,-2.70,-25.52,6.54
2018-10-02 08:00,15.37,222.5,16.73,-10.38,-11.34,-26.15,6.89
2018-10-02 09:00,17.44,214.0,16.75,-9.75,-14.46,-26.39,6.46
2018-10-02 10:00,11.54,179.7,16.73,0.06,-11.54,-27.78,6.57
2018-10-02 11:00,12.81,191.4,16.74,-2.53,-12.56,-27.52,6.44
2018-10-02 12:00,13.81,189.5,16.71,-2.27,-13.62,-26.47,6.64
2018-10-02 13:00,17.20,226.4,16.67,-12.45,-11.87,-28.27,6.79
2018-10-02 14:00,14.02,250.3,16.65,-13.21,-4.72,-25.97,8.40
2018-10-02 15:00,22.92,248.0,16.64,-21.24,-8.60,-21.48,9.49
2018-10-02 16:00,21.61,257.2,16.63,-21.07,-4.81,-24.00,8.03
2018-10-02 17:00,27.86,240.0,16.64,-24.12,-13.93,-25.95,7.65
2018-10-02 18:00,18.37,277.5,16.63,-18.22,2.39,-22.35,7.56
2018-10-02 19:00,11.77,281.7,16.63,-11.52,2.39,-24.53,6.26
2018-10-02 20:00,6.84,269.8,16.63,-6.84,-0.02,-24.90,5.49
2018-10-02 21:00,1.34,287.1,16.62,-1.28,0.39,-25.43,5.58
2018-10-02 22:00,2.94,90.2,16.62,2.94,-0.01,-25.25,4.29
2018-10-02 23:00,7.07,129.4,16.62,5.47,-4.49,-24.35,3.85
2018-10-03 00:00,9.48,97.9,16.59,9.39,-1.31,-25.88,4.04
2018-10-03 01:00,13.43,140.7,16.57,8.50,-10.39,-25.46,3.90
2018-10-03 02:00,13.56,200.7,16.56,-4.80,-12.68,-25.78,5.45
2018-10-03 03:00,31.30,190.4,16.52,-5.63,-30.79,-26.17,8.30
2018-10-03 04:00,37.66,202.5,16.49,-14.39,-34.81,-26.45,9.79
2018-10-03 05:00,33.04,223.7,16.56,-22.85,-23.88,-28.66,8.03
2018-10-03 06:00,35.24,230.4,16.55,-27.16,-22.46,-26.17,9.29
2018-10-03 07:00,34.70,236.4,16.53,-28.90,-19.21,-26.01,10.13
2018-10-03 08:00,35.36,237.5,16.53,-29.83,-18.99,-22.38,9.32
2018-10-03 09:00,36.26,233.2,16.54,-29.04,-21.72,-22.31,9.27
2018-10-03 10:00,38.63,230.4,16.49,-29.76,-24.62,-25.77,10.68
2018-10-03 11:00,38.58,230.8,16.44,-29.89,-24.39,-23.68,9.96
2018-10-03 12:00,30.77,234.2,16.40,-24.95,-18.02,-27.35,9.16
2018-10-03 13:00,21.25,240.9,16.44,-18.56,-10.34,-28.11,6.56
2018-10-03 14:00,19.82,252.0,16.39,-18.85,-6.13,-28.62,4.98
2018-10-03 15:00,13.92,256.4,16.40,-13.53,-3.27,-27.19,4.50
2018-10-03 16:00,19.58,259.5,16.43,-19.25,-3.58,-27.80,3.95
2018-10-03 17:00,23.94,261.1,16.43,-23.65,-3.72,-27.07,4.27
2018-10-03 18:00,19.53,242.7,16.50,-17.36,-8.95,-29.08,4.12
2018-10-03 19:00,55.07,220.9,16.44,-36.09,-41.60,-27.79,9.89
2018-10-03 20:00,57.33,228.7,16.40,-43.09,-37.81,-26.76,10.04
2018-10-03 21:00,52.22,229.5,16.38,-39.70,-33.92,-27.39,8.44
2018-10-03 22:00,53.71,223.9,16.38,-37.21,-38.73,-26.79,9.70
2018-10-03 23:00,43.37,226.9,16.40,-31.69,-29.61,-24.53,9.38
2018-10-04 00:00,52.97,225.4,16.46,-37.75,-37.16,-26.09,10.12
2018-10-04 01:00,54.32,232.0,16.48,-42.78,-33.47,-26.37,9.26
2018-10-04 02:00,63.39,233.3,16.55,-50.85,-37.84,-26.14,8.78
2018-10-04 03:00,52.86,239.0,16.51,-45.31,-27.24,-27.06,6.90
2018-10-04 04:00,55.86,238.5,16.48,-47.62,-29.20,-26.40,8.16
2018-10-04 05:00,52.12,243.0,16.47,-46.43,-23.69,-26.86,7.40
2018-10-04 06:00,50.94,241.2,16.45,-44.65,-24.51,-27.04,7.67
2018-10-04 07:00,48.96,250.0,16.37,-46.01,-16.74,-28.69,7.69
2018-10-04 08:00,44.63,252.6,16.29,-42.59,-13.34,-28.10,6.85
2018-10-04 09:00,37.94,240.5,16.32,-33.04,-18.66,-26.23,4.08
2018-10-04 10:00,33.33,238.7,16.25,-28.48,-17.31,-25.44,3.46
2018-10-04 11:00,24.09,233.9,16.22,-19.48,-14.18,-24.40,2.84
2018-10-04 12:00,19.60,219.7,16.24,-12.51,-15.09,-25.45,3.91
2018-10-04 13:00,15.41,207.1,16.27,-7.02,-13.72,-25.47,6.10
2018-10-04 14:00,14.37,217.0,16.36,-8.65,-11.48,-23.53,5.29
2018-10-04 15:00,10.15,232.7,16.46,-8.08,-6.15,-23.85,6.47
2018-10-04 16:00,11.39,250.8,16.51,-10.76,-3.74,-23.25,6.84
2018-10-04 17:00,17.00,274.7,16.62,-16.94,1.39,-19.57,6.60
2018-10-04 18:00,17.10,269.6,16.65,-17.10,-0.12,-20.59,7.50
2018-10-04 19:00,18.88,260.1,16.68,-18.60,-3.26,-23.53,6.49
2018-10-04 20:00,16.19,273.3,16.70,-16.16,0.93,-23.56,6.42
2018-10-04 21:00,14.46,259.2,16.68,-14.20,-2.72,-24.82,5.26
2018-10-04 22:00,11.24,220.2,16.65,-7.26,-8.58,-24.26,5.62
2018-10-04 23:00,11.02,161.2,16.66,3.56,-10.43,-25.79,5.33
2018-10-05 00:00,13.01,147.1,16.60,7.07,-10.92,-27.26,5.56
2018-10-05 01:00,21.10,134.4,16.61,15.07,-14.76,-25.11,5.82
2018-10-05 02:00,25.71,150.7,16.59,12.58,-22.42,-27.13,4.67
2018-10-05 03:00,31.19,139.8,16.60,20.11,-23.84,-29.25,5.11
2018-10-05 04:00,28.78,149.7,16.61,14.52,-24.85,-29.61,4.80
2018-10-05 05:00,22.52,166.3,16.60,5.34,-21.87,-29.45,4.58
2018-10-05 06:00,26.07,182.5,16.56,-1.16,-26.04,-23.17,8.37
2018-10-05 07:00,25.17,211.5,16.50,-13.17,-21.45,-23.52,8.10
2018-10-05 08:00,30.54,211.1,16.47,-15.78,-26.15,-19.81,9.99
2018-10-05 09:00,26.51,226.8,16.42,-19.34,-18.13,-14.94,13.44
2018-10-05 10:00,35.13,223.5,16.40,-24.18,-25.49,-16.92,12.64
2018-10-05 11:00,34.76,217.8,16.36,-21.32,-27.45,-13.25,14.00
2018-10-05 12:00,39.74,214.4,16.29,-22.46,-32.78,-16.48,14.49
2018-10-05 13:00,35.99,229.2,16.23,-27.23,-23.54,-13.50,13.72
2018-10-05 14:00,37.99,236.6,16.19,-31.72,-20.91,-20.53,13.52
2018-10-05 15:00,32.39,246.1,16.20,-29.63,-13.10,-17.31,10.51
2018-10-05 16:00,25.29,257.8,16.22,-24.72,-5.34,-18.18,10.23
2018-10-05 17:00,18.23,277.9,16.25,-18.06,2.51,-25.65,9.22
2018-10-05 18:00,26.69,283.5,16.27,-25.96,6.23,-23.38,8.45
2018-10-05 19:00,26.06,283.0,16.29,-25.39,5.88,-25.59,7.65
2018-10-05 20:00,20.39,292.6,16.31,-18.83,7.82,-26.06,7.66
2018-10-05 20:00,20.39,292.6,16.31,-18.83,7.82,-26.06,7.66
2018-10-05 21:00,14.62,310.3,16.31,-11.15,9.46,-24.89,6.40
2018-10-05 20:00,20.39,292.6,16.31,-18.83,7.82,-26.06,7.66
2018-10-05 21:00,14.62,310.3,16.31,-11.15,9.46,-24.89,6.40
2018-10-05 22:00,2.14,8.5,16.29,0.32,2.12,-26.96,4.18
2018-10-05 20:00,20.39,292.6,16.31,-18.83,7.82,-26.06,7.66
2018-10-05 21:00,14.62,310.3,16.31,-11.15,9.46,-24.89,6.40
2018-10-05 22:00,2.14,8.5,16.29,0.32,2.12,-26.96,4.18
2018-10-05 23:00,10.58,128.1,16.24,8.33,-6.52,-26.55,5.14
2018-10-06 00:00,18.60,127.2,16.20,14.82,-11.25,-29.81,4.30
2018-10-06 01:00,24.91,127.4,16.17,19.78,-15.13,-27.49,5.59
2018-10-06 02:00,27.72,129.5,16.11,21.39,-17.63,-29.28,4.79
2018-10-06 03:00,29.89,135.6,16.07,20.92,-21.35,-28.64,5.87
2018-10-06 04:00,30.12,151.8,16.07,14.25,-26.53,-29.17,5.60
2018-10-06 05:00,25.67,151.2,16.07,12.37,-22.49,-29.66,4.97
2018-10-06 06:00,20.99,168.0,16.08,4.38,-20.52,-29.57,4.66
2018-10-06 07:00,24.87,206.9,16.04,-11.27,-22.18,-28.61,5.40
2018-10-06 08:00,24.12,208.7,15.98,-11.58,-21.15,-28.72,5.46
2018-10-06 09:00,21.02,233.6,15.90,-16.92,-12.48,-29.13,5.54
2018-10-06 10:00,28.69,255.3,15.76,-27.74,-7.29,-29.30,5.88
2018-10-06 11:00,32.18,240.1,15.80,-27.91,-16.02,-30.93,5.37
2018-10-06 12:00,29.51,225.0,15.85,-20.85,-20.88,-28.69,5.13
2018-10-06 13:00,22.05,218.3,15.83,-13.66,-17.31,-28.65,4.90
2018-10-06 14:00,18.57,192.2,15.94,-3.92,-18.15,-29.07,4.26
2018-10-05 20:00,20.39,292.6,16.31,-18.83,7.82,-26.06,7.66
2018-10-05 21:00,14.62,310.3,16.31,-11.15,9.46,-24.89,6.40
2018-10-05 22:00,2.14,8.5,16.29,0.32,2.12,-26.96,4.18
2018-10-05 23:00,10.58,128.1,16.24,8.33,-6.52,-26.55,5.14
2018-10-06 00:00,18.60,127.2,16.20,14.82,-11.25,-29.81,4.30
2018-10-06 01:00,24.91,127.4,16.17,19.78,-15.13,-27.49,5.59
2018-10-06 02:00,27.72,129.5,16.11,21.39,-17.63,-29.28,4.79
2018-10-06 03:00,29.89,135.6,16.07,20.92,-21.35,-28.64,5.87
2018-10-06 04:00,30.12,151.8,16.07,14.25,-26.53,-29.17,5.60
2018-10-06 05:00,25.67,151.2,16.07,12.37,-22.49,-29.66,4.97
2018-10-06 06:00,20.99,168.0,16.08,4.38,-20.52,-29.57,4.66
2018-10-06 07:00,24.87,206.9,16.04,-11.27,-22.18,-28.61,5.40
2018-10-06 08:00,24.12,208.7,15.98,-11.58,-21.15,-28.72,5.46
2018-10-06 09:00,21.02,233.6,15.90,-16.92,-12.48,-29.13,5.54
2018-10-06 10:00,28.69,255.3,15.76,-27.74,-7.29,-29.30,5.88
2018-10-06 11:00,32.18,240.1,15.80,-27.91,-16.02,-30.93,5.37
2018-10-06 12:00,29.51,225.0,15.85,-20.85,-20.88,-28.69,5.13
2018-10-06 13:00,22.05,218.3,15.83,-13.66,-17.31,-28.65,4.90
2018-10-06 14:00,18.57,192.2,15.94,-3.92,-18.15,-29.07,4.26
2018-10-06 15:00,18.70,174.8,16.05,1.68,-18.62,-28.34,4.20
2018-10-06 16:00,21.12,178.4,15.99,0.59,-21.11,-27.68,3.65
2018-10-06 17:00,21.38,185.1,16.00,-1.90,-21.30,-28.95,2.91
2018-10-06 18:00,17.09,208.2,16.07,-8.09,-15.06,-27.57,3.10
2018-10-06 19:00,23.05,222.2,16.05,-15.47,-17.09,-27.61,3.32
2018-10-06 20:00,24.35,229.3,16.18,-18.47,-15.86,-27.43,4.03
2018-10-06 21:00,24.36,245.7,16.26,-22.20,-10.03,-23.88,4.88
2018-10-06 22:00,16.31,225.1,16.24,-11.55,-11.52,-25.23,4.74
2018-10-06 23:00,20.12,257.5,16.14,-19.65,-4.35,-24.11,6.04
2018-10-07 00:00,12.55,295.1,16.07,-11.36,5.33,-17.79,6.39
2018-10-07 01:00,5.00,55.8,16.02,4.14,2.81,-17.34,7.30
2018-10-07 02:00,14.92,90.9,16.05,14.92,-0.22,-26.44,7.50
2018-10-07 03:00,21.73,105.5,16.09,20.93,-5.82,-24.28,7.59
2018-10-07 04:00,26.43,111.4,16.08,24.61,-9.65,-27.53,7.26
2018-10-07 05:00,27.73,103.5,16.07,26.96,-6.48,-27.64,6.95
2018-10-07 06:00,24.18,109.9,16.09,22.74,-8.21,-26.18,7.72
2018-10-07 07:00,19.02,114.4,16.16,17.32,-7.86,-23.58,9.27
2018-10-07 08:00,12.43,145.5,16.18,7.04,-10.25,-23.32,7.03
2018-10-07 09:00,11.12,207.9,16.18,-5.20,-9.82,-24.57,5.22
2018-10-07 10:00,13.95,180.7,16.19,-0.17,-13.95,-28.01,3.82
2018-10-07 11:00,13.79,182.4,16.18,-0.59,-13.78,-26.67,5.14
2018-10-07 12:00,15.07,172.5,16.15,1.98,-14.94,-27.95,4.89
2018-10-07 13:00,19.12,180.4,16.16,-0.14,-19.12,-28.79,4.05
2018-10-07 14:00,18.78,161.3,16.20,6.01,-17.80,-28.91,5.13
2018-10-07 15:00,25.92,139.4,16.25,16.87,-19.68,-28.00,4.51
2018-10-07 16:00,20.71,151.5,16.32,9.87,-18.21,-28.71,4.07
2018-10-07 17:00,23.85,125.6,16.44,19.39,-13.89,-29.01,3.79
2018-10-07 18:00,22.35,126.7,16.50,17.93,-13.35,-27.85,3.69
2018-10-07 19:00,15.85,140.4,16.68,10.09,-12.22,-26.95,4.71
2018-10-07 20:00,23.18,209.7,16.66,-11.47,-20.15,-16.66,9.32
2018-10-07 21:00,31.31,236.1,16.47,-25.98,-17.47,-23.46,9.94
2018-10-07 22:00,31.41,252.5,16.33,-29.95,-9.47,-21.39,10.63
2018-10-07 23:00,35.01,256.4,16.34,-34.03,-8.22,-18.88,11.09
2018-10-08 00:00,22.77,269.4,16.26,-22.77,-0.23,-23.94,9.00
2018-10-08 01:00,23.64,282.0,16.12,-23.13,4.92,-19.96,7.89
2018-10-08 02:00,12.48,291.5,16.11,-11.62,4.57,-21.87,6.57
2018-10-08 03:00,3.42,109.0,16.11,3.23,-1.11,-21.21,7.06
2018-10-08 04:00,9.36,34.8,16.10,5.34,7.69,-27.20,7.19
2018-10-08 05:00,7.19,95.5,16.10,7.16,-0.69,-25.08,5.92
2018-10-08 06:00,18.68,111.3,16.22,17.40,-6.80,-26.96,6.41
2018-10-08 07:00,10.06,101.2,16.25,9.86,-1.96,-14.54,7.20
2018-10-08 08:00,6.21,154.1,16.25,2.72,-5.58,-24.27,8.17
2018-10-08 09:00,16.10,208.3,16.23,-7.63,-14.17,-25.98,10.69
2018-10-08 10:00,19.57,247.8,16.23,-18.11,-7.41,-25.63,9.37
2018-10-08 11:00,20.47,228.8,16.20,-15.41,-13.47,-22.54,10.22
2018-10-08 12:00,9.46,221.0,16.18,-6.21,-7.14,-25.95,9.97
2018-10-08 13:00,20.83,238.9,16.08,-17.83,-10.76,-13.04,9.06
2018-10-08 14:00,19.77,232.4,16.07,-15.67,-12.05,-23.81,9.22
2018-10-08 15:00,8.97,209.5,16.11,-4.42,-7.80,-26.27,7.13
2018-10-08 16:00,6.24,175.3,16.15,0.51,-6.22,-25.35,6.57
2018-10-08 17:00,1.65,83.4,16.17,1.64,0.19,-24.74,6.09
2018-10-08 18:00,8.04,90.3,16.18,8.04,-0.04,-26.64,5.95
2018-10-08 19:00,12.44,83.1,16.18,12.35,1.49,-27.02,4.72
2018-10-08 20:00,10.79,81.0,16.22,10.66,1.69,-27.53,4.84
2018-10-08 21:00,1.29,212.9,16.24,-0.70,-1.08,-26.31,5.15
2018-10-08 22:00,8.25,236.9,16.23,-6.91,-4.51,-26.65,4.85
2018-10-08 23:00,11.75,247.4,16.23,-10.85,-4.51,-26.96,4.59
2018-10-09 00:00,9.35,201.4,16.23,-3.42,-8.70,-26.83,4.58
2018-10-09 01:00,6.81,198.6,16.24,-2.17,-6.45,-26.69,4.29
2018-10-09 02:00,3.76,183.1,16.24,-0.20,-3.76,-27.03,4.39
2018-10-09 03:00,9.80,124.7,16.25,8.06,-5.58,-27.82,5.84
2018-10-09 04:00,18.81,97.9,16.25,18.64,-2.57,-24.42,6.38
2018-10-09 05:00,22.00,105.2,16.24,21.23,-5.77,-26.64,7.93
2018-10-09 06:00,24.67,109.4,16.20,23.27,-8.20,-25.26,6.34
2018-10-09 07:00,25.53,101.9,16.20,24.98,-5.26,-25.52,6.56
2018-10-09 08:00,21.04,110.1,16.19,19.77,-7.22,-27.40,7.11
2018-10-09 09:00,17.75,101.8,16.19,17.38,-3.63,-25.58,5.77
2018-10-09 10:00,7.99,122.6,16.18,6.74,-4.30,-23.43,6.12
2018-10-09 11:00,9.54,192.1,16.18,-2.00,-9.33,-27.01,5.37
2018-10-09 12:00,7.42,175.3,16.18,0.61,-7.39,-24.14,5.59
2018-10-09 13:00,10.96,137.5,16.17,7.41,-8.08,-26.82,6.47
2018-10-09 14:00,10.72,138.1,16.18,7.16,-7.98,-26.27,5.39
2018-10-09 15:00,14.03,133.4,16.23,10.19,-9.64,-27.87,5.54
2018-10-09 16:00,23.83,109.7,16.33,22.43,-8.04,-30.68,6.27
2018-10-09 17:00,24.82,112.5,16.37,22.94,-9.48,-28.16,6.27
2018-10-09 18:00,28.96,118.8,16.42,25.37,-13.97,-26.19,6.40
2018-10-09 19:00,26.92,111.2,16.43,25.09,-9.74,-24.11,8.33
2018-10-09 20:00,30.40,113.0,16.49,27.98,-11.88,-27.38,6.40
2018-10-09 21:00,21.78,119.4,16.52,18.98,-10.68,-27.65,6.02
2018-10-09 22:00,17.29,154.6,16.50,7.41,-15.62,-27.48,4.31
2018-10-09 23:00,11.84,173.2,16.48,1.41,-11.75,-26.57,3.56
2018-10-10 00:00,8.66,210.1,16.44,-4.34,-7.49,-25.92,4.31
2018-10-10 01:00,7.76,194.2,16.38,-1.90,-7.52,-27.59,5.45
2018-10-10 02:00,8.08,183.1,16.37,-0.43,-8.06,-26.91,4.06
2018-10-10 03:00,13.21,206.9,16.30,-5.98,-11.78,-27.65,4.33
2018-10-10 04:00,7.57,165.6,16.22,1.88,-7.33,-24.56,4.58
2018-10-10 05:00,13.09,145.4,16.26,7.43,-10.77,-27.08,4.24
2018-10-10 06:00,17.64,143.0,16.27,10.61,-14.09,-27.55,4.46
2018-10-10 07:00,17.44,112.9,16.34,16.06,-6.78,-26.50,6.08
2018-10-10 08:00,20.55,99.0,16.40,20.30,-3.21,-27.82,5.72
2018-10-10 09:00,16.64,99.1,16.40,16.43,-2.62,-26.19,5.40
2018-10-10 10:00,15.73,102.8,16.48,15.34,-3.49,-27.02,5.13
2018-10-10 11:00,5.60,158.9,16.49,2.01,-5.22,-27.61,3.89
2018-10-10 12:00,4.22,149.8,16.51,2.12,-3.65,-25.95,3.59
2018-10-10 13:00,6.49,184.8,16.52,-0.54,-6.47,-27.24,3.22
2018-10-10 14:00,8.27,140.4,16.55,5.27,-6.37,-26.76,3.29
2018-10-10 15:00,10.36,171.7,16.67,1.49,-10.25,-27.00,3.26
2018-10-10 16:00,10.83,150.6,16.71,5.31,-9.44,-26.86,3.78
2018-10-10 17:00,17.28,120.4,16.81,14.90,-8.74,-29.84,3.48
2018-10-10 18:00,17.65,146.7,16.71,9.69,-14.76,-27.03,2.98
2018-10-10 19:00,28.45,106.3,17.13,27.30,-8.01,-28.45,3.56
2018-10-10 20:00,23.47,103.9,17.03,22.78,-5.64,-29.13,1.99
2018-10-10 21:00,16.55,95.1,16.88,16.49,-1.48,-28.82,3.17
2018-10-10 22:00,12.06,107.2,17.13,11.52,-3.57,-27.31,2.76
2018-10-10 23:00,5.61,337.9,17.04,-2.11,5.20,-25.00,2.20
2018-10-11 00:00,5.07,285.3,17.01,-4.89,1.33,-26.94,2.53
2018-10-11 01:00,3.18,118.6,17.01,2.79,-1.52,-27.32,2.67
2018-10-11 02:00,1.74,43.6,16.99,1.20,1.26,-24.94,3.24
2018-10-11 03:00,4.10,106.3,16.99,3.94,-1.15,-25.75,2.63
2018-10-11 04:00,9.37,139.1,16.94,6.14,-7.08,-27.20,3.29
2018-10-11 05:00,12.69,126.3,16.94,10.23,-7.51,-27.77,3.15
2018-10-11 06:00,28.26,128.1,16.87,22.25,-17.42,-25.61,5.28
2018-10-11 07:00,28.96,140.0,16.91,18.61,-22.18,-26.79,5.69
2018-10-11 08:00,26.49,144.2,16.88,15.50,-21.49,-26.44,5.05
2018-10-11 09:00,20.65,154.0,16.82,9.07,-18.56,-26.87,4.98
2018-10-11 10:00,17.21,195.7,16.84,-4.65,-16.57,-23.98,5.66
2018-10-11 11:00,20.91,237.7,16.74,-17.69,-11.16,-21.91,6.69
2018-10-11 12:00,29.31,262.3,16.54,-29.04,-3.94,-28.13,7.26
2018-10-11 13:00,21.17,277.9,16.54,-20.97,2.90,-25.09,5.86
2018-10-11 14:00,21.47,269.9,16.47,-21.47,-0.05,-26.90,5.89
2018-10-11 15:00,13.27,254.3,16.47,-12.77,-3.58,-26.51,5.26
2018-10-11 16:00,11.62,241.4,16.40,-10.20,-5.56,-23.58,6.40
2018-10-11 17:00,8.71,232.7,16.38,-6.92,-5.28,-24.64,4.82
2018-10-11 18:00,11.75,221.0,16.40,-7.71,-8.87,-22.31,5.81
2018-10-11 19:00,11.60,192.7,16.39,-2.56,-11.32,-22.65,6.44
2018-10-11 20:00,10.58,142.4,16.36,6.45,-8.38,-20.04,6.87
2018-10-11 21:00,10.51,164.3,16.36,2.85,-10.11,-18.57,6.84
2018-10-11 22:00,17.30,182.9,16.36,-0.86,-17.28,-21.53,8.02
2018-10-11 23:00,17.82,229.2,16.35,-13.49,-11.64,-23.42,7.73
2018-10-12 00:00,22.89,218.2,16.30,-14.17,-17.98,-23.37,8.95
2018-10-12 01:00,26.42,228.4,16.15,-19.77,-17.52,-21.11,7.74
2018-10-12 02:00,26.90,233.2,15.92,-21.53,-16.13,-22.59,6.67
2018-10-12 03:00,26.85,243.3,15.83,-23.99,-12.05,-27.29,6.24
2018-10-12 04:00,10.44,248.4,15.78,-9.71,-3.84,-24.11,5.92
2018-10-12 05:00,9.48,224.7,15.70,-6.67,-6.74,-27.24,5.26
2018-10-12 06:00,10.12,211.9,15.70,-5.36,-8.59,-24.54,5.15
2018-10-12 07:00,17.49,95.1,15.76,17.42,-1.56,-27.75,4.73
2018-10-12 08:00,14.44,112.2,15.69,13.38,-5.45,-27.11,4.44
2018-10-12 09:00,19.67,103.4,15.68,19.13,-4.57,-26.82,3.45
2018-10-12 10:00,21.58,89.5,15.63,21.58,0.19,-26.91,4.42
2018-10-12 11:00,16.81,141.9,15.54,10.37,-13.22,-25.74,4.17
2018-10-12 12:00,23.20,209.1,15.51,-11.30,-20.27,-19.27,7.26
2018-10-12 13:00,54.34,209.0,15.58,-26.38,-47.51,-19.69,12.94
2018-10-12 14:00,63.57,221.3,15.68,-41.96,-47.76,-17.06,14.49
2018-10-12 15:00,69.90,221.7,15.71,-46.46,-52.22,-18.34,16.60
2018-10-12 16:00,69.36,219.2,15.62,-43.81,-53.77,-16.73,15.77
2018-10-12 17:00,72.19,211.4,15.52,-37.58,-61.64,-13.91,17.31
2018-10-12 18:00,71.37,209.0,15.46,-34.58,-62.44,-16.90,16.06
2018-10-12 19:00,54.14,210.5,15.37,-27.49,-46.65,-17.82,13.68
2018-10-12 20:00,46.58,203.1,15.40,-18.24,-42.86,-19.84,11.39
2018-10-12 21:00,48.02,192.0,15.45,-9.95,-46.98,-17.10,11.20
2018-10-12 22:00,39.41,189.8,15.44,-6.68,-38.85,-21.19,8.66
2018-10-12 23:00,37.88,185.7,15.43,-3.74,-37.69,-24.35,7.64
2018-10-13 00:00,39.97,199.9,15.38,-13.60,-37.59,-26.31,8.13
2018-10-13 01:00,39.17,214.6,15.22,-22.24,-32.25,-26.93,7.18
2018-10-13 02:00,40.25,223.5,15.06,-27.72,-29.19,-26.75,6.97
2018-10-13 03:00,38.18,228.9,14.94,-28.79,-25.09,-26.99,5.92
2018-10-13 04:00,34.22,232.4,14.87,-27.11,-20.89,-27.84,5.50
2018-10-13 05:00,33.84,217.4,14.82,-20.55,-26.89,-27.03,6.35
2018-10-13 06:00,50.40,210.6,14.91,-25.67,-43.37,-26.58,8.39
2018-10-13 07:00,45.23,216.0,14.92,-26.58,-36.59,-25.41,8.24
2018-10-13 08:00,39.53,209.4,14.97,-19.42,-34.43,-24.63,7.65
2018-10-13 09:00,42.98,207.5,15.01,-19.84,-38.12,-26.78,7.97
2018-10-13 10:00,38.11,209.6,15.06,-18.82,-33.14,-27.62,7.08
2018-10-13 11:00,33.32,190.5,15.12,-6.08,-32.76,-29.47,6.75
2018-10-13 12:00,39.47,193.5,15.27,-9.24,-38.37,-27.03,7.37
2018-10-13 13:00,46.53,215.5,15.13,-27.03,-37.87,-28.76,6.12
2018-10-13 14:00,46.66,224.4,15.17,-32.67,-33.31,-28.82,5.72